{"data":{"norad_id":40733,"epoch":"2026-05-25T04:31:38.768160Z","epoch_age_seconds":58181,"freshness":"FRESH","line1":"1 40733U 15034B   26145.18864315 -.00000267  00000+0  00000+0 0  9998","line2":"2 40733   0.0262   6.0420 0002540  46.8411 187.8047  1.00270620 39786","mean_motion":1.0027062,"eccentricity":0.000254,"inclination_deg":0.0262,"raan_deg":6.042,"arg_perigee_deg":46.8411,"mean_anomaly_deg":187.8047,"bstar":0,"rev_number":3978,"period_min":1436.1135894044,"perigee_km":35776.21163127,"apogee_km":35797.631481017,"semimajor_km":42165.058556144,"source":"CELESTRAK","updated_at":"2026-05-25T13:38:13.989793Z"}}